FMN 1 (43192 NORAD) Tracking and Keplerian Element Data

This shows tracking and keplerian element data for the satellite.

Feedback or suggestion? Click here.




ElementValue
Catalog43192
NameFMN 1
Epoch Orbit2441
Epoch Day193.79520413
Epoch Year2018
RAAN322.1613
Inclination97.3587
Eccentricity0.0018373
Argument of Perigee56.2824
Mean Anonmoly304.0163
Mean Motion15.22901642
Decay Rate1.526E-05
L11 43192U 18015A 18193.79520413 .00001526 00000-0 67801-4 0 9997
L22 43192 97.3587 322.1613 0018373 56.2824 304.0163 15.22901642 24417

Live tracking and technical data element details for FMN 1 (NORAD 43192). FMN 1 can be tracked NOW for your location showing map with azimuth and elevation plus other details from your city location.

Track the satellite on the map from your city or location and see movement details for azimuth, elevation, latitude, longitude, range, height, and movement on the map or in text.







IsCatalogInMostPopularTable: catalog: 43192, numindb: 99
Update: records affected: 1



GetName: 43192 FMN 1

Hit Count: updated at: Wed, 18 Jul 2018 20:27:08 GMT